IZ6UQU-13 Weather Reports


Display with metric or nautical units.
time (UTC)temp
F
wind
direction
speed
MPH
gust
MPH
rain 1hr
in
rain 24hr
in
rain mn
in
humidity
%
barometer
mb
20260504021508 45 0 0.0 0.0 0.00 0.00 0.00 93 960.2
20260504021008 45 0 0.0 0.0 0.00 0.00 0.00 92 960.2
20260504020508 45 0 0.0 0.0 0.00 0.00 0.00 92 960.2
20260504020008 45 0 0.0 1.0 0.00 0.00 0.00 92 960.2
20260504015508 46 0 0.0 3.0 0.00 0.00 0.00 91 960.2
20260504015008 46 265 1.0 3.0 0.00 0.00 0.00 91 960.2
20260504014508 46 267 2.0 3.0 0.00 0.00 0.00 92 960.2
20260504014008 46 274 0.0 4.0 0.00 0.00 0.00 91 960.3
20260504013508 46 274 1.0 5.0 0.00 0.00 0.00 92 960.3
20260504013008 46 255 4.0 5.0 0.00 0.00 0.00 92 960.3
20260504012507 46 284 0.0 1.0 0.00 0.00 0.00 92 960.2
20260504012007 46 286 0.0 2.0 0.00 0.00 0.00 92 960.2
20260504011508 46 0 0.0 2.0 0.00 0.00 0.00 92 960.2
20260504011008 46 284 0.0 1.0 0.00 0.00 0.00 92 960.1
20260504010507 46 0 0.0 1.0 0.00 0.00 0.00 92 960.2
20260504010008 46 0 0.0 1.0 0.00 0.00 0.00 91 960.1
20260504005507 46 0 0.0 0.0 0.00 0.00 0.00 92 960.2
20260504005008 46 0 0.0 2.0 0.00 0.00 0.00 92 960.2
20260504004507 46 293 0.0 3.0 0.00 0.00 0.00 92 960.1
20260504004007 46 276 2.0 3.0 0.00 0.00 0.00 92 960.1
20260504003507 47 280 1.0 3.0 0.00 0.00 0.00 91 960.1
20260504003007 47 280 1.0 3.0 0.00 0.00 0.00 92 960.2
20260504002507 46 276 0.0 3.0 0.00 0.00 0.00 91 960.2
20260504002007 47 284 2.0 3.0 0.00 0.00 0.00 91 960.2
20260504001507 46 274 0.0 2.0 0.00 0.00 0.00 90 960.2
20260504001007 47 0 0.0 2.0 0.00 0.00 0.00 90 960.2
20260504000507 47 274 1.0 2.0 0.00 0.00 0.00 90 960.2
20260504000007 47 0 0.0 0.0 0.00 0.00 0.00 90 960.3
20260503235507 47 0 0.0 0.0 0.00 0.00 0.00 90 960.2
20260503235007 48 0 0.0 0.0 0.00 0.00 0.00 90 960.2
20260503234507 48 0 0.0 4.0 0.00 0.00 0.00 89 960.3
20260503234007 48 291 0.0 4.0 0.00 0.00 0.00 89 960.4
20260503233507 48 274 2.0 4.0 0.00 0.00 0.00 88 960.4
20260503233007 48 277 2.0 4.0 0.00 0.00 0.00 88 960.5
20260503232507 49 237 0.0 3.0 0.00 0.00 0.00 88 960.5
20260503232007 49 198 1.0 3.0 0.00 0.00 0.00 88 960.4
20260503231507 49 0 0.0 3.0 0.00 0.00 0.00 88 960.5
20260503231007 49 274 2.0 3.0 0.00 0.00 0.00 89 960.5
20260503230507 49 290 0.0 3.0 0.00 0.00 0.00 88 960.5
20260503230009 49 274 0.0 3.0 0.00 0.00 0.00 87 960.4
20260503225507 49 275 2.0 4.0 0.00 0.00 0.00 89 960.4
20260503225007 48 290 0.0 4.0 0.00 0.00 0.00 88 960.4
20260503224507 49 275 3.0 4.0 0.00 0.00 0.00 87 960.4
20260503224007 50 278 1.0 3.0 0.00 0.00 0.00 86 960.5
20260503223507 50 247 2.0 3.0 0.00 0.00 0.00 87 960.5
20260503223007 50 0 0.0 3.0 0.00 0.00 0.00 86 960.6
20260503222507 50 0 0.0 4.0 0.00 0.00 0.00 86 960.5
20260503222007 50 178 1.0 4.0 0.00 0.00 0.00 86 960.5
20260503221507 50 192 2.0 4.0 0.00 0.00 0.00 86 960.4
20260503221008 50 205 0.0 3.0 0.00 0.00 0.00 86 960.4
20260503220508 51 197 1.0 3.0 0.00 0.00 0.00 85 960.4
20260503220008 51 0 0.0 4.0 0.00 0.00 0.00 85 960.4
20260503215508 51 282 2.0 4.0 0.00 0.00 0.00 85 960.4
20260503215008 51 280 2.0 3.0 0.00 0.00 0.00 85 960.3
20260503214508 51 291 0.0 3.0 0.00 0.00 0.00 85 960.2
20260503214008 51 285 0.0 4.0 0.00 0.00 0.00 85 960.3
20260503213507 51 282 1.0 4.0 0.00 0.00 0.00 85 960.2
20260503213008 51 283 1.0 4.0 0.00 0.00 0.00 85 960.2
20260503212507 52 279 2.0 4.0 0.00 0.00 0.00 84 960.2
20260503212007 52 0 0.0 2.0 0.00 0.00 0.00 83 960.1
20260503211507 52 41 0.0 5.0 0.00 0.00 0.00 83 960.2
20260503211007 52 161 2.0 5.0 0.00 0.00 0.00 82 960.1
20260503210507 52 186 0.0 3.0 0.00 0.00 0.00 83 960.0
20260503210008 52 0 0.0 3.0 0.00 0.00 0.00 83 960.0
20260503205507 52 264 0.0 3.0 0.00 0.00 0.00 82 960.0
20260503205007 53 248 0.0 2.0 0.00 0.00 0.00 82 960.1
20260503204507 53 245 0.0 4.0 0.00 0.00 0.00 82 960.0
20260503204007 53 191 1.0 4.0 0.00 0.00 0.00 81 960.1
20260503203507 54 264 0.0 3.0 0.00 0.00 0.00 81 960.0
20260503203007 53 264 0.0 3.0 0.00 0.00 0.00 82 960.0
20260503202507 53 264 0.0 3.0 0.00 0.00 0.00 82 959.9
20260503202007 53 275 0.0 3.0 0.00 0.00 0.00 82 959.9
20260503201507 53 0 0.0 1.0 0.00 0.00 0.00 82 959.9
20260503201008 53 286 0.0 1.0 0.00 0.00 0.00 82 959.9
20260503200507 53 294 0.0 1.0 0.00 0.00 0.00 81 959.8
20260503200007 53 262 0.0 3.0 0.00 0.00 0.00 81 959.8
20260503195507 53 270 1.0 3.0 0.00 0.00 0.00 81 959.7
20260503195007 54 276 2.0 3.0 0.00 0.00 0.00 80 959.6
20260503194507 54 271 0.0 4.0 0.00 0.00 0.00 80 959.6
20260503194007 54 275 0.0 4.0 0.00 0.00 0.00 80 959.4
20260503193507 54 285 1.0 3.0 0.00 0.00 0.00 79 959.5
20260503193007 55 0 0.0 3.0 0.00 0.00 0.00 78 959.4
20260503192507 55 0 0.0 4.0 0.00 0.00 0.00 78 959.3
20260503192007 56 260 2.0 4.0 0.00 0.00 0.00 77 959.3
20260503191507 56 267 2.0 3.0 0.00 0.00 0.00 76 959.3
20260503191007 57 283 0.0 1.0 0.00 0.00 0.00 75 959.2
20260503190507 57 283 0.0 1.0 0.00 0.00 0.00 74 959.1
20260503190007 57 0 0.0 2.0 0.00 0.00 0.00 74 959.1
20260503185507 58 285 1.0 2.0 0.00 0.00 0.00 73 959.1
20260503185007 58 0 0.0 1.0 0.00 0.00 0.00 72 959.0
20260503184507 58 0 0.0 1.0 0.00 0.00 0.00 71 958.9
20260503184007 59 71 0.0 2.0 0.00 0.00 0.00 71 958.8
20260503183507 59 83 0.0 3.0 0.00 0.00 0.00 70 958.7
20260503183007 60 84 0.0 3.0 0.00 0.00 0.00 69 958.7
20260503182507 60 131 0.0 4.0 0.00 0.00 0.00 69 958.7
20260503182007 60 98 2.0 4.0 0.00 0.00 0.00 69 958.7
20260503181507 60 84 1.0 6.0 0.00 0.00 0.00 69 958.7
20260503181007 60 89 1.0 6.0 0.00 0.00 0.00 68 958.6
20260503180507 61 85 1.0 6.0 0.00 0.00 0.00 68 958.6
20260503180007 61 105 2.0 7.0 0.00 0.00 0.00 67 958.5
20260503175507 62 70 3.0 7.0 0.00 0.00 0.00 66 958.6
20260503175007 62 39 2.0 6.0 0.00 0.00 0.00 65 958.4
20260503174507 63 91 2.0 6.0 0.00 0.00 0.00 64 958.4
20260503174007 63 100 1.0 9.0 0.00 0.00 0.00 64 958.3
20260503173507 63 86 3.0 9.0 0.00 0.00 0.00 64 958.3
20260503173007 63 87 1.0 8.0 0.00 0.00 0.00 63 958.4
20260503172507 64 96 3.0 8.0 0.00 0.00 0.00 63 958.4
20260503172007 64 85 3.0 10.0 0.00 0.00 0.00 62 958.2
20260503171507 64 87 2.0 11.0 0.00 0.00 0.00 61 958.2
20260503171007 65 94 5.0 11.0 0.00 0.00 0.00 60 958.2
20260503170507 65 85 4.0 13.0 0.00 0.00 0.00 61 958.3
20260503151007 69 111 7.0 15.0 0.00 0.00 0.00 54 958.4
20260503150506 69 131 8.0 13.0 0.00 0.00 0.00 53 958.5
20260503131007 73 53 1.0 5.0 0.00 0.00 0.00 35 958.6
20260503130507 72 294 2.0 6.0 0.00 0.00 0.00 35 958.7
20260503110508 67 192 3.0 6.0 0.00 0.00 0.00 38 960.0
20260503090508 60 107 3.0 7.0 0.00 0.00 0.00 51 960.9
20260503081507 58 55 3.0 5.0 0.00 0.00 0.00 57 961.2
20260503081007 58 50 1.0 5.0 0.00 0.00 0.00 57 961.2
20260503080507 58 60 2.0 4.0 0.00 0.00 0.00 58 961.3
20260503072507 54 350 0.0 4.0 0.00 0.00 0.00 63 961.7
20260503072007 54 3 0.0 4.0 0.00 0.00 0.00 63 961.7
20260503071507 52 99 0.0 4.0 0.00 0.00 0.00 69 961.8
20260503071007 52 88 2.0 4.0 0.00 0.00 0.00 71 961.7
20260503070507 51 72 1.0 4.0 0.00 0.00 0.00 72 961.6
20260503055007 47 0 0.0 0.0 0.00 0.00 0.00 74 961.7
20260503054507 46 115 0.0 0.0 0.00 0.00 0.00 76 961.6
20260503054007 45 0 0.0 1.0 0.00 0.00 0.00 78 961.7
20260503053507 44 271 0.0 1.0 0.00 0.00 0.00 79 961.7
20260503053007 43 276 0.0 1.0 0.00 0.00 0.00 80 961.7
20260503052508 43 277 0.0 1.0 0.00 0.00 0.00 81 961.6
20260503052007 42 0 0.0 0.0 0.00 0.00 0.00 83 961.6
20260503051507 41 0 0.0 2.0 0.00 0.00 0.00 86 961.7
20260503051007 39 277 0.0 2.0 0.00 0.00 0.00 88 961.5
20260503050507 38 0 0.0 0.0 0.00 0.00 0.00 90 961.6
20260503050007 37 0 0.0 0.0 0.00 0.00 0.00 90 961.4
20260503045507 37 0 0.0 1.0 0.00 0.00 0.00 90 961.4
20260503045007 37 344 0.0 1.0 0.00 0.00 0.00 90 961.4
20260503044507 36 0 0.0 0.0 0.00 0.00 0.00 90 961.2
20260503044007 36 0 0.0 1.0 0.00 0.00 0.00 91 961.2
20260503043507 36 0 0.0 1.0 0.00 0.00 0.00 91 961.1
20260503043007 36 0 0.0 2.0 0.00 0.00 0.00 91 961.2
20260503042507 36 80 1.0 2.0 0.00 0.00 0.00 92 961.2
20260503042007 35 0 0.0 0.0 0.00 0.00 0.00 91 961.2
20260503041507 35 0 0.0 0.0 0.00 0.00 0.00 92 961.2
20260503041007 35 0 0.0 0.0 0.00 0.00 0.00 91 961.0
20260503040507 35 0 0.0 1.0 0.00 0.00 0.00 90 961.1
20260503040007 36 0 0.0 1.0 0.00 0.00 0.00 89 961.1
20260503035507 37 74 0.0 2.0 0.00 0.00 0.00 87 961.1
20260503035007 38 0 0.0 2.0 0.00 0.00 0.00 86 961.0
20260503034507 38 0 0.0 2.0 0.00 0.00 0.00 85 961.0
20260503034007 38 0 0.0 2.0 0.00 0.00 0.00 85 961.0
20260503033507 38 277 0.0 2.0 0.00 0.00 0.00 85 960.9
20260503033007 38 279 0.0 0.0 0.00 0.00 0.00 84 961.1
20260503032507 38 0 0.0 0.0 0.00 0.00 0.00 84 961.0
20260503032007 39 0 0.0 0.0 0.00 0.00 0.00 84 961.0
20260503031507 39 0 0.0 4.0 0.00 0.00 0.00 84 961.1
20260503031007 39 283 0.0 4.0 0.00 0.00 0.00 84 961.1
20260503030507 39 271 2.0 3.0 0.00 0.00 0.00 84 961.1
20260503030007 39 290 0.0 2.0 0.00 0.00 0.00 84 961.2
20260503025507 39 297 0.0 3.0 0.00 0.00 0.00 83 961.2
20260503025007 39 257 2.0 3.0 0.00 0.00 0.00 84 961.2
20260503024507 39 287 0.0 3.0 0.00 0.00 0.00 84 961.2
20260503024007 39 279 1.0 3.0 0.00 0.00 0.00 84 961.2
20260503023507 39 281 1.0 3.0 0.00 0.00 0.00 84 961.2
20260503023007 40 295 0.0 3.0 0.00 0.00 0.00 84 961.2
20260503022506 39 269 2.0 3.0 0.00 0.00 0.00 86 961.2
20260503022007 39 285 1.0 2.0 0.00 0.00 0.00 85 961.3